Time,TemperatureF,DewpointF,PressureIn,WindDirection,WindDirectionDegrees,WindSpeedMPH,WindSpeedGustMPH,Humidity,HourlyPrecipIn,Conditions,Clouds,dailyrainin,SoftwareType,DateUTC
2013-03-14 00:02:00,34.4,24.2,30.19,SSE,168,0.0,0.0,66,0.00,,SKC,0.00,VWS V14.01,2013-03-14 05:02:00,
2013-03-14 00:07:00,34.4,24.2,30.19,SSE,168,0.0,1.0,66,0.00,,SKC,0.00,VWS V14.01,2013-03-14 05:07:00,
2013-03-14 00:12:00,34.4,24.2,30.18,SSE,168,0.0,2.0,66,0.00,,SKC,0.00,VWS V14.01,2013-03-14 05:12:00,
2013-03-14 00:17:00,34.5,24.3,30.18,SSE,168,0.0,0.0,66,0.00,,SKC,0.00,VWS V14.01,2013-03-14 05:17:00,
2013-03-14 00:22:00,34.6,24.4,30.18,SSE,168,0.0,1.0,66,0.00,,SKC,0.00,VWS V14.01,2013-03-14 05:22:00,
2013-03-14 00:27:00,34.7,24.5,30.18,SSE,167,0.0,3.0,66,0.00,,SKC,0.00,VWS V14.01,2013-03-14 05:27:00,
2013-03-14 00:32:00,34.8,24.6,30.18,SSE,166,0.0,6.0,66,0.00,,SKC,0.00,VWS V14.01,2013-03-14 05:32:00,
2013-03-14 00:37:00,35.0,24.8,30.18,SSE,161,0.0,6.0,66,0.00,,SKC,0.00,VWS V14.01,2013-03-14 05:37:00,
2013-03-14 00:42:00,35.1,24.9,30.17,SSE,161,4.0,6.0,66,0.00,,SKC,0.00,VWS V14.01,2013-03-14 05:42:00,
2013-03-14 00:47:00,35.2,25.0,30.17,SSE,161,4.0,5.0,66,0.00,,SKC,0.00,VWS V14.01,2013-03-14 05:47:00,
2013-03-14 00:52:00,35.3,25.1,30.18,SSE,161,0.0,5.0,66,0.00,,SKC,0.00,VWS V14.01,2013-03-14 05:52:00,
2013-03-14 00:57:00,35.4,25.2,30.18,SSE,163,0.0,6.0,66,0.00,,SKC,0.00,VWS V14.01,2013-03-14 05:57:00,
2013-03-14 01:02:00,35.5,25.3,30.17,SSE,159,0.0,7.0,66,0.00,,SKC,0.00,VWS V14.01,2013-03-14 06:02:00,
2013-03-14 01:07:00,35.5,25.3,30.17,SSE,161,0.0,6.0,66,0.00,,SKC,0.00,VWS V14.01,2013-03-14 06:07:00,
2013-03-14 01:12:00,35.5,25.3,30.17,SSE,161,0.0,6.0,66,0.00,,SKC,0.00,VWS V14.01,2013-03-14 06:12:00,
2013-03-14 01:17:00,35.4,25.2,30.17,SSE,160,1.0,5.0,66,0.00,,SKC,0.00,VWS V14.01,2013-03-14 06:17:00,
2013-03-14 01:22:00,35.3,25.1,30.16,SSE,159,0.0,5.0,66,0.00,,SKC,0.00,VWS V14.01,2013-03-14 06:22:00,
2013-03-14 01:27:00,35.3,25.1,30.16,SSE,159,0.0,2.0,66,0.00,,SKC,0.00,VWS V14.01,2013-03-14 06:27:00,
2013-03-14 01:32:00,35.2,25.4,30.16,SSE,159,0.0,4.0,67,0.00,,SKC,0.00,VWS V14.01,2013-03-14 06:32:00,
2013-03-14 01:37:00,35.1,25.3,30.16,SSE,159,0.0,3.0,67,0.00,,SKC,0.00,VWS V14.01,2013-03-14 06:37:00,
2013-03-14 01:43:00,35.0,25.2,30.16,SSE,159,0.0,3.0,67,0.00,,SKC,0.00,VWS V14.01,2013-03-14 06:43:00,
2013-03-14 01:48:00,35.0,25.2,30.16,SSE,159,0.0,2.0,67,0.00,,SKC,0.00,VWS V14.01,2013-03-14 06:48:00,
2013-03-14 01:53:00,34.9,25.4,30.16,SSE,159,0.0,2.0,68,0.00,,SKC,0.00,VWS V14.01,2013-03-14 06:53:00,
2013-03-14 01:58:00,34.8,25.3,30.15,SSE,159,0.0,5.0,68,0.00,,SKC,0.00,VWS V14.01,2013-03-14 06:58:00,
2013-03-14 02:03:00,34.8,25.3,30.14,SSE,155,3.0,7.0,68,0.00,,SKC,0.00,VWS V14.01,2013-03-14 07:03:00,
2013-03-14 02:08:00,35.0,25.5,30.14,SSE,153,0.0,4.0,68,0.00,,SKC,0.00,VWS V14.01,2013-03-14 07:08:00,
2013-03-14 02:13:00,35.0,25.5,30.14,SSE,153,0.0,6.0,68,0.00,,SKC,0.00,VWS V14.01,2013-03-14 07:13:00,
2013-03-14 02:18:00,35.0,25.5,30.14,SSE,152,1.0,4.0,68,0.00,,SKC,0.00,VWS V14.01,2013-03-14 07:18:00,
2013-03-14 02:23:00,35.1,25.6,30.14,SSE,151,0.0,5.0,68,0.00,,SKC,0.00,VWS V14.01,2013-03-14 07:23:00,
2013-03-14 02:28:00,35.1,25.3,30.14,SE,146,0.0,6.0,67,0.00,,SKC,0.00,VWS V14.01,2013-03-14 07:28:00,
2013-03-14 02:33:00,35.2,25.4,30.14,SE,145,1.0,7.0,67,0.00,,SKC,0.00,VWS V14.01,2013-03-14 07:33:00,
2013-03-14 02:38:00,35.1,25.3,30.14,SE,144,0.0,4.0,67,0.00,,SKC,0.00,VWS V14.01,2013-03-14 07:38:00,
2013-03-14 02:43:00,35.1,25.3,30.14,SE,144,0.0,6.0,67,0.00,,SKC,0.00,VWS V14.01,2013-03-14 07:43:00,
2013-03-14 02:48:00,35.0,25.2,30.13,SE,143,0.0,9.0,67,0.00,,SKC,0.00,VWS V14.01,2013-03-14 07:48:00,
2013-03-14 02:53:00,35.0,25.2,30.13,SE,141,4.0,9.0,67,0.00,,SKC,0.00,VWS V14.01,2013-03-14 07:53:00,
2013-03-14 02:58:00,34.9,25.4,30.14,SE,140,0.0,5.0,68,0.00,,SKC,0.00,VWS V14.01,2013-03-14 07:58:00,
2013-03-14 03:03:00,34.8,25.3,30.14,SE,140,0.0,5.0,68,0.00,,SKC,0.00,VWS V14.01,2013-03-14 08:03:00,
2013-03-14 03:08:00,34.8,25.3,30.13,SE,140,4.0,5.0,68,0.00,,SKC,0.00,VWS V14.01,2013-03-14 08:08:00,
2013-03-14 03:13:00,34.8,25.3,30.12,SE,140,0.0,5.0,68,0.00,,SKC,0.00,VWS V14.01,2013-03-14 08:13:00,
2013-03-14 03:18:00,34.8,25.3,30.12,SE,142,0.0,9.0,68,0.00,,SKC,0.00,VWS V14.01,2013-03-14 08:18:00,
2013-03-14 03:23:00,34.7,25.2,30.12,SE,141,0.0,9.0,68,0.00,,SKC,0.00,VWS V14.01,2013-03-14 08:23:00,
2013-03-14 03:28:00,34.6,25.1,30.12,SE,142,0.0,4.0,68,0.00,,SKC,0.00,VWS V14.01,2013-03-14 08:28:00,
2013-03-14 03:33:00,34.5,25.4,30.11,SE,144,0.0,6.0,69,0.00,,SKC,0.00,VWS V14.01,2013-03-14 08:33:00,
2013-03-14 03:38:00,34.4,25.3,30.11,SE,144,0.0,4.0,69,0.00,,SKC,0.00,VWS V14.01,2013-03-14 08:38:00,
2013-03-14 03:43:00,34.4,25.3,30.11,SE,144,0.0,4.0,69,0.00,,SKC,0.00,VWS V14.01,2013-03-14 08:43:00,
2013-03-14 03:48:00,34.4,25.3,30.11,SE,144,0.0,1.0,69,0.00,,SKC,0.00,VWS V14.01,2013-03-14 08:48:00,
2013-03-14 03:53:00,34.4,25.3,30.11,SE,144,0.0,1.0,69,0.00,,SKC,0.00,VWS V14.01,2013-03-14 08:53:00,
2013-03-14 03:58:00,34.3,25.2,30.11,SE,144,0.0,4.0,69,0.00,,SKC,0.00,VWS V14.01,2013-03-14 08:58:00,
2013-03-14 04:03:00,34.1,25.0,30.10,SE,145,0.0,4.0,69,0.00,,SKC,0.00,VWS V14.01,2013-03-14 09:03:00,
2013-03-14 04:08:00,34.0,25.3,30.10,SSE,147,0.0,6.0,70,0.00,,SKC,0.00,VWS V14.01,2013-03-14 09:08:00,
2013-03-14 04:13:00,33.9,25.2,30.09,SSE,151,2.0,6.0,70,0.00,,SKC,0.00,VWS V14.01,2013-03-14 09:13:00,
2013-03-14 04:18:00,33.9,25.2,30.09,SSE,154,0.0,5.0,70,0.00,,SKC,0.00,VWS V14.01,2013-03-14 09:18:00,
2013-03-14 04:23:00,33.9,25.2,30.09,SSE,154,0.0,5.0,70,0.00,,SKC,0.00,VWS V14.01,2013-03-14 09:23:00,
2013-03-14 04:28:00,33.8,25.1,30.09,SSE,155,0.0,4.0,70,0.00,,SKC,0.00,VWS V14.01,2013-03-14 09:28:00,
2013-03-14 04:33:00,33.7,25.0,30.08,SSE,155,0.0,4.0,70,0.00,,SKC,0.00,VWS V14.01,2013-03-14 09:33:00,
2013-03-14 04:38:00,33.7,25.0,30.08,SSE,155,0.0,2.0,70,0.00,,SKC,0.00,VWS V14.01,2013-03-14 09:38:00,
2013-03-14 04:43:00,33.7,25.0,30.08,SSE,155,0.0,5.0,70,0.00,,SKC,0.00,VWS V14.01,2013-03-14 09:43:00,
2013-03-14 04:48:00,33.7,25.0,30.07,SSE,160,1.0,6.0,70,0.00,,SKC,0.00,VWS V14.01,2013-03-14 09:48:00,
2013-03-14 04:53:00,33.7,25.0,30.07,SSE,163,0.0,6.0,70,0.00,,SKC,0.00,VWS V14.01,2013-03-14 09:53:00,
2013-03-14 04:58:00,33.7,25.0,30.07,SSE,165,0.0,6.0,70,0.00,,SKC,0.00,VWS V14.01,2013-03-14 09:58:00,
2013-03-14 05:03:00,33.8,25.1,30.07,SSE,166,0.0,9.0,70,0.00,,SKC,0.00,VWS V14.01,2013-03-14 10:03:00,
2013-03-14 05:08:00,33.8,24.7,30.06,SSE,166,0.0,6.0,69,0.00,,SKC,0.00,VWS V14.01,2013-03-14 10:08:00,
2013-03-14 05:13:00,33.9,24.8,30.07,SSE,163,0.0,9.0,69,0.00,,SKC,0.00,VWS V14.01,2013-03-14 10:13:00,
2013-03-14 05:18:00,34.1,25.0,30.07,SSE,164,0.0,5.0,69,0.00,,SKC,0.00,VWS V14.01,2013-03-14 10:18:00,
2013-03-14 05:23:00,34.2,25.1,30.07,SSE,166,0.0,5.0,69,0.00,,SKC,0.00,VWS V14.01,2013-03-14 10:23:00,
2013-03-14 05:28:00,34.3,24.9,30.07,SSE,166,0.0,1.0,68,0.00,,SKC,0.00,VWS V14.01,2013-03-14 10:28:00,
2013-03-14 05:33:00,34.4,25.0,30.07,SSE,166,0.0,1.0,68,0.00,,SKC,0.00,VWS V14.01,2013-03-14 10:33:00,
2013-03-14 05:38:00,34.4,25.0,30.07,SSE,166,0.0,3.0,68,0.00,,SKC,0.00,VWS V14.01,2013-03-14 10:38:00,
2013-03-14 05:43:00,34.4,25.0,30.06,SSE,166,0.0,3.0,68,0.00,,SKC,0.00,VWS V14.01,2013-03-14 10:43:00,
2013-03-14 05:48:00,34.4,25.0,30.06,SSE,166,0.0,0.0,68,0.00,,SKC,0.00,VWS V14.01,2013-03-14 10:48:00,
2013-03-14 05:53:00,34.3,24.9,30.06,SSE,166,0.0,1.0,68,0.00,,SKC,0.00,VWS V14.01,2013-03-14 10:53:00,
2013-03-14 05:58:00,34.3,24.9,30.06,SSE,166,0.0,0.0,68,0.00,,SKC,0.00,VWS V14.01,2013-03-14 10:58:00,
2013-03-14 06:03:00,34.4,25.0,30.06,SSE,166,0.0,0.0,68,0.00,,SKC,0.00,VWS V14.01,2013-03-14 11:03:00,
2013-03-14 06:08:00,34.4,25.3,30.05,SSE,166,0.0,2.0,69,0.00,,SKC,0.00,VWS V14.01,2013-03-14 11:08:00,
2013-03-14 06:13:00,34.4,25.3,30.05,SSE,166,0.0,2.0,69,0.00,,SKC,0.00,VWS V14.01,2013-03-14 11:13:00,
2013-03-14 06:18:00,34.4,25.3,30.05,SSE,166,0.0,0.0,69,0.00,,SKC,0.00,VWS V14.01,2013-03-14 11:18:00,
2013-03-14 06:23:00,34.4,25.3,30.05,SSE,167,0.0,0.0,69,0.00,,SKC,0.00,VWS V14.01,2013-03-14 11:23:00,
2013-03-14 06:28:00,34.4,25.3,30.04,SSE,166,0.0,1.0,69,0.00,,SKC,0.00,VWS V14.01,2013-03-14 11:28:00,
2013-03-14 06:33:00,34.4,25.3,30.04,SSE,166,0.0,3.0,69,0.00,,SKC,0.00,VWS V14.01,2013-03-14 11:33:00,
2013-03-14 06:39:00,34.4,25.3,30.04,SSE,166,0.0,1.0,69,0.00,,SKC,0.00,VWS V14.01,2013-03-14 11:39:00,
2013-03-14 06:44:00,34.4,25.3,30.04,SSE,166,0.0,1.0,69,0.00,,SKC,0.00,VWS V14.01,2013-03-14 11:44:00,
2013-03-14 06:48:00,34.4,25.3,30.05,SSE,166,0.0,0.0,69,0.00,,SKC,0.00,VWS V14.01,2013-03-14 11:48:00,
2013-03-14 06:54:00,34.4,25.3,30.04,SSE,166,0.0,0.0,69,0.00,,SKC,0.00,VWS V14.01,2013-03-14 11:54:00,
2013-03-14 06:59:00,34.4,25.3,30.04,SSE,166,0.0,0.0,69,0.00,,SKC,0.00,VWS V14.01,2013-03-14 11:59:00,
2013-03-14 07:04:00,34.4,25.3,30.04,SSE,166,0.0,0.0,69,0.00,,SKC,0.00,VWS V14.01,2013-03-14 12:04:00,
2013-03-14 07:09:00,34.4,25.6,30.04,SSE,166,0.0,0.0,70,0.00,,SKC,0.00,VWS V14.01,2013-03-14 12:09:00,
2013-03-14 07:14:00,34.4,25.6,30.04,SSE,166,0.0,0.0,70,0.00,,SKC,0.00,VWS V14.01,2013-03-14 12:14:00,
2013-03-14 07:19:00,34.4,25.6,30.03,SSE,166,0.0,0.0,70,0.00,,SKC,0.00,VWS V14.01,2013-03-14 12:19:00,
2013-03-14 07:24:00,34.4,25.6,30.03,SSE,166,0.0,0.0,70,0.00,,SKC,0.00,VWS V14.01,2013-03-14 12:24:00,
2013-03-14 07:29:00,34.4,25.6,30.03,SSE,166,0.0,0.0,70,0.00,,SKC,0.00,VWS V14.01,2013-03-14 12:29:00,
2013-03-14 07:34:00,34.2,25.5,30.03,SSE,166,0.0,1.0,70,0.00,,SKC,0.00,VWS V14.01,2013-03-14 12:34:00,
2013-03-14 07:39:00,34.1,25.7,30.03,SSE,166,0.0,0.0,71,0.00,,SKC,0.00,VWS V14.01,2013-03-14 12:39:00,
2013-03-14 07:44:00,34.0,25.6,30.03,SSE,166,0.0,0.0,71,0.00,,SKC,0.00,VWS V14.01,2013-03-14 12:44:00,
2013-03-14 07:49:00,34.1,26.0,30.02,SSE,166,0.0,1.0,72,0.00,,SKC,0.00,VWS V14.01,2013-03-14 12:49:00,
2013-03-14 07:54:00,34.3,26.6,30.02,SSE,166,0.0,0.0,73,0.00,,SKC,0.00,VWS V14.01,2013-03-14 12:54:00,
2013-03-14 07:59:00,34.4,26.7,30.02,SSE,167,0.0,4.0,73,0.00,,SKC,0.00,VWS V14.01,2013-03-14 12:59:00,
2013-03-14 08:04:00,35.0,27.2,30.02,SSE,167,0.0,0.0,73,0.00,,SKC,0.00,VWS V14.01,2013-03-14 13:04:00,
2013-03-14 08:09:00,35.5,27.7,30.02,SSE,167,0.0,3.0,73,0.00,,SKC,0.00,VWS V14.01,2013-03-14 13:09:00,
2013-03-14 08:14:00,36.1,28.3,30.02,South,173,0.0,0.0,73,0.00,,SKC,0.00,VWS V14.01,2013-03-14 13:14:00,
2013-03-14 08:19:00,36.6,28.8,30.01,South,175,0.0,5.0,73,0.00,,SKC,0.00,VWS V14.01,2013-03-14 13:19:00,
2013-03-14 08:24:00,37.1,29.3,30.01,South,175,3.0,3.0,73,0.00,,SKC,0.00,VWS V14.01,2013-03-14 13:24:00,
2013-03-14 08:29:00,37.7,29.8,30.01,South,178,3.0,5.0,73,0.00,,SKC,0.00,VWS V14.01,2013-03-14 13:29:00,
2013-03-14 08:34:00,38.2,30.3,30.01,South,186,5.0,5.0,73,0.00,,SKC,0.00,VWS V14.01,2013-03-14 13:34:00,
2013-03-14 08:39:00,38.7,30.5,30.01,SSW,194,5.0,6.0,72,0.00,,SKC,0.00,VWS V14.01,2013-03-14 13:39:00,
2013-03-14 08:44:00,39.3,31.0,30.01,SSW,200,0.0,0.0,72,0.00,,SKC,0.00,VWS V14.01,2013-03-14 13:44:00,
2013-03-14 08:49:00,39.8,31.2,30.00,SSW,204,0.0,7.0,71,0.00,,SKC,0.00,VWS V14.01,2013-03-14 13:49:00,
2013-03-14 08:54:00,40.2,31.2,30.00,SSW,206,6.0,7.0,70,0.00,,SKC,0.00,VWS V14.01,2013-03-14 13:54:00,
2013-03-14 08:59:00,40.6,31.6,30.00,SSW,203,1.0,9.0,70,0.00,,SKC,0.00,VWS V14.01,2013-03-14 13:59:00,
2013-03-14 09:04:00,40.9,31.9,30.00,SSW,205,4.0,9.0,70,0.00,,SKC,0.00,VWS V14.01,2013-03-14 14:04:00,
2013-03-14 09:09:00,41.2,32.2,30.00,SSW,205,0.0,9.0,70,0.00,,SKC,0.00,VWS V14.01,2013-03-14 14:09:00,
2013-03-14 09:14:00,41.5,32.5,30.00,SSW,205,0.0,1.0,70,0.00,,SKC,0.00,VWS V14.01,2013-03-14 14:14:00,
2013-03-14 09:19:00,42.0,32.9,30.00,SSW,205,0.0,9.0,70,0.00,,SKC,0.00,VWS V14.01,2013-03-14 14:19:00,
2013-03-14 09:24:00,42.6,33.2,30.00,SSW,207,0.0,0.0,69,0.00,,SKC,0.00,VWS V14.01,2013-03-14 14:24:00,
2013-03-14 09:29:00,43.2,33.4,30.00,SSW,206,0.0,5.0,68,0.00,,SKC,0.00,VWS V14.01,2013-03-14 14:29:00,
2013-03-14 09:34:00,43.7,33.8,30.00,SSW,205,0.0,0.0,68,0.00,,SKC,0.00,VWS V14.01,2013-03-14 14:34:00,
2013-03-14 09:39:00,44.4,34.5,30.00,SSW,204,0.0,4.0,68,0.00,,SKC,0.00,VWS V14.01,2013-03-14 14:39:00,
2013-03-14 09:44:00,45.2,34.9,30.00,SSW,209,0.0,0.0,67,0.00,,SKC,0.00,VWS V14.01,2013-03-14 14:44:00,
2013-03-14 09:49:00,46.0,35.3,30.00,SW,215,0.0,5.0,66,0.00,,SKC,0.00,VWS V14.01,2013-03-14 14:49:00,
2013-03-14 09:54:00,46.8,35.7,30.01,SW,222,0.0,0.0,65,0.00,,SKC,0.00,VWS V14.01,2013-03-14 14:54:00,
2013-03-14 09:59:00,47.6,36.0,30.01,SW,221,0.0,7.0,64,0.00,,SKC,0.00,VWS V14.01,2013-03-14 14:59:00,
2013-03-14 10:04:00,48.6,36.6,30.01,SW,221,0.0,0.0,63,0.00,,SKC,0.00,VWS V14.01,2013-03-14 15:04:00,
2013-03-14 10:09:00,49.7,37.2,30.00,SW,223,0.0,7.0,62,0.00,,SKC,0.00,VWS V14.01,2013-03-14 15:09:00,
2013-03-14 10:14:00,50.5,37.2,30.01,SW,231,0.0,0.0,60,0.00,,SKC,0.00,VWS V14.01,2013-03-14 15:14:00,
2013-03-14 10:19:00,51.4,38.0,30.00,SW,231,0.0,2.0,60,0.00,,SKC,0.00,VWS V14.01,2013-03-14 15:19:00,
2013-03-14 10:24:00,52.4,38.1,30.00,WSW,241,0.0,10.0,58,0.00,,SKC,0.00,VWS V14.01,2013-03-14 15:24:00,
2013-03-14 10:29:00,53.3,38.9,30.00,WSW,248,0.0,10.0,58,0.00,,SKC,0.00,VWS V14.01,2013-03-14 15:29:00,
2013-03-14 10:34:00,54.1,39.2,30.00,WSW,244,3.0,9.0,57,0.00,,SKC,0.00,VWS V14.01,2013-03-14 15:34:00,
2013-03-14 10:39:00,55.0,40.1,29.99,WSW,248,0.0,9.0,57,0.00,,SKC,0.00,VWS V14.01,2013-03-14 15:39:00,
2013-03-14 10:44:00,56.2,40.3,29.99,West,265,3.0,6.0,55,0.00,,SKC,0.00,VWS V14.01,2013-03-14 15:44:00,
2013-03-14 10:49:00,57.0,40.1,29.99,WSW,238,7.0,11.0,53,0.00,,SKC,0.00,VWS V14.01,2013-03-14 15:49:00,
2013-03-14 10:54:00,57.1,39.7,29.99,WSW,245,2.0,11.0,52,0.00,,SKC,0.00,VWS V14.01,2013-03-14 15:54:00,
2013-03-14 10:59:00,56.9,39.5,29.99,WSW,257,5.0,12.0,52,0.00,,SKC,0.00,VWS V14.01,2013-03-14 15:59:00,
2013-03-14 11:04:00,56.9,39.5,29.99,WSW,257,7.0,16.0,52,0.00,,SKC,0.00,VWS V14.01,2013-03-14 16:04:00,
2013-03-14 11:09:00,56.8,39.4,29.99,West,276,7.0,17.0,52,0.00,,SKC,0.00,VWS V14.01,2013-03-14 16:09:00,
2013-03-14 11:14:00,56.6,39.7,29.98,WSW,257,6.0,12.0,53,0.00,,SKC,0.00,VWS V14.01,2013-03-14 16:14:00,
2013-03-14 11:19:00,56.7,39.3,29.98,WSW,255,10.0,17.0,52,0.00,,SKC,0.00,VWS V14.01,2013-03-14 16:19:00,
2013-03-14 11:24:00,56.7,39.3,29.99,West,262,13.0,13.0,52,0.00,,SKC,0.00,VWS V14.01,2013-03-14 16:24:00,
2013-03-14 11:29:00,57.1,40.2,29.99,WSW,250,6.0,14.0,53,0.00,,SKC,0.00,VWS V14.01,2013-03-14 16:29:00,
2013-03-14 11:34:00,57.7,39.7,29.99,WSW,244,1.0,7.0,51,0.00,,SKC,0.00,VWS V14.01,2013-03-14 16:34:00,
2013-03-14 11:39:00,57.7,39.7,29.99,WSW,240,2.0,15.0,51,0.00,,SKC,0.00,VWS V14.01,2013-03-14 16:39:00,
2013-03-14 11:44:00,57.8,39.8,29.99,SW,229,0.0,9.0,51,0.00,,SKC,0.00,VWS V14.01,2013-03-14 16:44:00,
2013-03-14 11:49:00,58.0,40.5,29.99,WSW,254,8.0,10.0,52,0.00,,SKC,0.00,VWS V14.01,2013-03-14 16:49:00,
2013-03-14 11:54:00,58.1,40.1,29.99,WSW,251,2.0,7.0,51,0.00,,SKC,0.00,VWS V14.01,2013-03-14 16:54:00,
2013-03-14 12:02:00,58.8,40.7,29.99,WSW,254,1.0,9.0,51,0.00,,SKC,0.00,VWS V14.01,2013-03-14 17:02:00,
2013-03-14 12:07:00,59.4,41.3,29.99,West,273,1.0,15.0,51,0.00,,SKC,0.00,VWS V14.01,2013-03-14 17:07:00,
2013-03-14 12:12:00,59.7,40.0,29.99,WSW,251,9.0,15.0,48,0.00,,SKC,0.00,VWS V14.01,2013-03-14 17:12:00,
2013-03-14 12:17:00,59.7,40.5,29.99,WSW,242,3.0,16.0,49,0.00,,SKC,0.00,VWS V14.01,2013-03-14 17:17:00,
2013-03-14 12:22:00,59.8,40.1,29.99,West,261,0.0,16.0,48,0.00,,SKC,0.00,VWS V14.01,2013-03-14 17:22:00,
2013-03-14 12:27:00,59.7,40.5,29.99,West,259,3.0,14.0,49,0.00,,SKC,0.00,VWS V14.01,2013-03-14 17:27:00,
2013-03-14 12:32:00,59.5,40.3,30.00,West,263,2.0,14.0,49,0.00,,SKC,0.00,VWS V14.01,2013-03-14 17:32:00,
2013-03-14 12:37:00,59.7,41.0,30.00,West,265,0.0,11.0,50,0.00,,SKC,0.00,VWS V14.01,2013-03-14 17:37:00,
2013-03-14 12:42:00,59.9,41.2,30.00,West,268,3.0,13.0,50,0.00,,SKC,0.00,VWS V14.01,2013-03-14 17:42:00,
2013-03-14 12:47:00,59.6,40.4,30.00,West,276,5.0,10.0,49,0.00,,SKC,0.00,VWS V14.01,2013-03-14 17:47:00,
2013-03-14 12:52:00,59.6,41.0,30.00,WNW,290,0.0,10.0,50,0.00,,SKC,0.00,VWS V14.01,2013-03-14 17:52:00,
2013-03-14 12:57:00,60.3,41.1,30.00,West,279,7.0,11.0,49,0.00,,SKC,0.00,VWS V14.01,2013-03-14 17:57:00,
2013-03-14 13:02:00,60.8,40.5,30.01,WNW,289,5.0,11.0,47,0.00,,SKC,0.00,VWS V14.01,2013-03-14 18:02:00,
2013-03-14 13:07:00,61.0,41.2,29.99,SW,230,5.0,13.0,48,0.00,,SKC,0.00,VWS V14.01,2013-03-14 18:07:00,
2013-03-14 13:12:00,61.6,41.7,29.99,WSW,244,0.0,13.0,48,0.00,,SKC,0.00,VWS V14.01,2013-03-14 18:12:00,
2013-03-14 13:17:00,62.3,41.8,29.99,WSW,240,4.0,5.0,47,0.00,,SKC,0.00,VWS V14.01,2013-03-14 18:17:00,
2013-03-14 13:22:00,62.7,42.2,29.99,West,264,0.0,12.0,47,0.00,,SKC,0.00,VWS V14.01,2013-03-14 18:22:00,
2013-03-14 13:28:00,62.9,42.4,29.99,West,271,0.0,5.0,47,0.00,,SKC,0.00,VWS V14.01,2013-03-14 18:28:00,
2013-03-14 13:33:00,63.2,42.1,29.99,West,259,1.0,5.0,46,0.00,,SKC,0.00,VWS V14.01,2013-03-14 18:33:00,
2013-03-14 13:38:00,63.6,42.5,29.98,WSW,243,7.0,7.0,46,0.00,,SKC,0.00,VWS V14.01,2013-03-14 18:38:00,
2013-03-14 13:43:00,63.9,43.3,29.98,WSW,247,3.0,7.0,47,0.00,,SKC,0.00,VWS V14.01,2013-03-14 18:43:00,
2013-03-14 13:48:00,64.5,42.7,29.98,West,265,0.0,9.0,45,0.00,,SKC,0.00,VWS V14.01,2013-03-14 18:48:00,
2013-03-14 13:53:00,64.4,42.6,29.98,WNW,302,2.0,9.0,45,0.00,,SKC,0.00,VWS V14.01,2013-03-14 18:53:00,
2013-03-14 13:58:00,64.8,42.4,29.98,WNW,286,0.0,10.0,44,0.00,,SKC,0.00,VWS V14.01,2013-03-14 18:58:00,
2013-03-14 14:03:00,65.2,42.8,29.98,WNW,296,8.0,10.0,44,0.00,,SKC,0.00,VWS V14.01,2013-03-14 19:03:00,
2013-03-14 14:08:00,65.7,42.6,29.98,WNW,294,0.0,4.0,43,0.00,,SKC,0.00,VWS V14.01,2013-03-14 19:08:00,
2013-03-14 14:13:00,66.0,43.5,29.98,West,261,7.0,7.0,44,0.00,,SKC,0.00,VWS V14.01,2013-03-14 19:13:00,
2013-03-14 14:18:00,66.6,42.8,29.98,WSW,253,0.0,9.0,42,0.00,,SKC,0.00,VWS V14.01,2013-03-14 19:18:00,
2013-03-14 14:23:00,66.8,43.0,29.98,NW,304,0.0,9.0,42,0.00,,SKC,0.00,VWS V14.01,2013-03-14 19:23:00,
2013-03-14 14:28:00,67.2,42.7,29.98,West,268,0.0,9.0,41,0.00,,SKC,0.00,VWS V14.01,2013-03-14 19:28:00,
2013-03-14 14:33:00,67.0,43.2,29.98,West,269,2.0,9.0,42,0.00,,SKC,0.00,VWS V14.01,2013-03-14 19:33:00,
2013-03-14 14:38:00,67.3,43.5,29.97,West,277,0.0,4.0,42,0.00,,SKC,0.00,VWS V14.01,2013-03-14 19:38:00,
2013-03-14 14:43:00,67.7,43.2,29.97,WNW,302,3.0,10.0,41,0.00,,SKC,0.00,VWS V14.01,2013-03-14 19:43:00,
2013-03-14 14:48:00,68.5,43.2,29.97,WSW,247,0.0,6.0,40,0.00,,SKC,0.00,VWS V14.01,2013-03-14 19:48:00,
2013-03-14 14:53:00,68.9,43.0,29.97,WNW,289,3.0,7.0,39,0.00,,SKC,0.00,VWS V14.01,2013-03-14 19:53:00,
2013-03-14 14:58:00,69.2,43.2,29.97,WSW,252,0.0,7.0,39,0.00,,SKC,0.00,VWS V14.01,2013-03-14 19:58:00,
2013-03-14 15:03:00,69.7,43.7,29.97,WNW,291,3.0,8.0,39,0.00,,SKC,0.00,VWS V14.01,2013-03-14 20:03:00,
2013-03-14 15:08:00,70.2,43.4,29.96,WNW,284,3.0,6.0,38,0.00,,SKC,0.00,VWS V14.01,2013-03-14 20:08:00,
2013-03-14 15:13:00,70.6,43.8,29.96,WNW,289,5.0,7.0,38,0.00,,SKC,0.00,VWS V14.01,2013-03-14 20:13:00,
2013-03-14 15:18:00,70.9,43.4,29.96,West,263,0.0,7.0,37,0.00,,SKC,0.00,VWS V14.01,2013-03-14 20:18:00,
2013-03-14 15:23:00,71.3,43.7,29.96,West,270,0.0,7.0,37,0.00,,SKC,0.00,VWS V14.01,2013-03-14 20:23:00,
2013-03-14 15:28:00,71.3,43.7,29.96,West,273,0.0,5.0,37,0.00,,SKC,0.00,VWS V14.01,2013-03-14 20:28:00,
2013-03-14 15:33:00,71.6,44.0,29.96,West,273,0.0,5.0,37,0.00,,SKC,0.00,VWS V14.01,2013-03-14 20:33:00,
2013-03-14 15:38:00,72.3,43.1,29.96,WNW,300,1.0,9.0,35,0.00,,SKC,0.00,VWS V14.01,2013-03-14 20:38:00,
2013-03-14 15:43:00,72.4,43.2,29.96,WNW,302,0.0,9.0,35,0.00,,SKC,0.00,VWS V14.01,2013-03-14 20:43:00,
2013-03-14 15:48:00,72.6,42.7,29.95,NNW,348,1.0,7.0,34,0.00,,SKC,0.00,VWS V14.01,2013-03-14 20:48:00,
2013-03-14 15:53:00,72.9,43.7,29.95,West,265,0.0,7.0,35,0.00,,SKC,0.00,VWS V14.01,2013-03-14 20:53:00,
2013-03-14 15:58:00,73.3,44.0,29.95,West,275,1.0,4.0,35,0.00,,SKC,0.00,VWS V14.01,2013-03-14 20:58:00,
2013-03-14 16:03:00,73.5,41.9,29.95,NW,314,2.0,7.0,32,0.00,,SKC,0.00,VWS V14.01,2013-03-14 21:03:00,
2013-03-14 16:08:00,74.0,41.5,29.95,NNW,341,0.0,7.0,31,0.00,,SKC,0.00,VWS V14.01,2013-03-14 21:08:00,
2013-03-14 16:13:00,74.2,41.7,29.95,WNW,288,10.0,11.0,31,0.00,,SKC,0.00,VWS V14.01,2013-03-14 21:13:00,
2013-03-14 16:18:00,74.2,40.8,29.95,NW,318,5.0,11.0,30,0.00,,SKC,0.00,VWS V14.01,2013-03-14 21:18:00,
2013-03-14 16:23:00,74.2,40.8,29.95,NW,316,6.0,11.0,30,0.00,,SKC,0.00,VWS V14.01,2013-03-14 21:23:00,
2013-03-14 16:28:00,74.1,40.7,29.95,NNW,327,5.0,12.0,30,0.00,,SKC,0.00,VWS V14.01,2013-03-14 21:28:00,
2013-03-14 16:33:00,74.1,40.7,29.95,NW,318,7.0,12.0,30,0.00,,SKC,0.00,VWS V14.01,2013-03-14 21:33:00,
2013-03-14 16:38:00,74.3,40.9,29.95,NW,317,10.0,10.0,30,0.00,,SKC,0.00,VWS V14.01,2013-03-14 21:38:00,
2013-03-14 16:43:00,74.2,40.8,29.95,NNW,345,2.0,12.0,30,0.00,,SKC,0.00,VWS V14.01,2013-03-14 21:43:00,
2013-03-14 16:48:00,74.2,39.9,29.94,North,5,1.0,10.0,29,0.00,,SKC,0.00,VWS V14.01,2013-03-14 21:48:00,
2013-03-14 16:53:00,74.2,40.8,29.94,NW,319,0.0,10.0,30,0.00,,SKC,0.00,VWS V14.01,2013-03-14 21:53:00,
2013-03-14 16:58:00,74.2,40.8,29.94,NW,323,0.0,8.0,30,0.00,,SKC,0.00,VWS V14.01,2013-03-14 21:58:00,
2013-03-14 17:03:00,74.1,41.6,29.94,NNE,17,3.0,8.0,31,0.00,,SKC,0.00,VWS V14.01,2013-03-14 22:03:00,
2013-03-14 17:08:00,74.1,40.7,29.94,NNE,20,3.0,7.0,30,0.00,,SKC,0.00,VWS V14.01,2013-03-14 22:08:00,
2013-03-14 17:13:00,74.0,40.6,29.94,NNW,333,1.0,9.0,30,0.00,,SKC,0.00,VWS V14.01,2013-03-14 22:13:00,
2013-03-14 17:18:00,73.9,40.5,29.94,NNW,346,0.0,9.0,30,0.00,,SKC,0.00,VWS V14.01,2013-03-14 22:18:00,
2013-03-14 17:23:00,73.9,40.5,29.93,NW,316,0.0,9.0,30,0.00,,SKC,0.00,VWS V14.01,2013-03-14 22:23:00,
2013-03-14 17:28:00,73.9,40.5,29.93,NW,322,3.0,5.0,30,0.00,,SKC,0.00,VWS V14.01,2013-03-14 22:28:00,
2013-03-14 17:33:00,73.9,39.7,29.93,NW,325,1.0,10.0,29,0.00,,SKC,0.00,VWS V14.01,2013-03-14 22:33:00,
2013-03-14 17:38:00,73.9,39.7,29.92,NNW,342,0.0,5.0,29,0.00,,SKC,0.00,VWS V14.01,2013-03-14 22:38:00,
2013-03-14 17:43:00,73.9,39.7,29.93,North,350,1.0,5.0,29,0.00,,SKC,0.00,VWS V14.01,2013-03-14 22:43:00,
2013-03-14 17:48:00,73.8,39.6,29.92,North,355,0.0,5.0,29,0.00,,SKC,0.00,VWS V14.01,2013-03-14 22:48:00,
2013-03-14 17:53:00,73.7,38.6,29.93,NW,326,0.0,7.0,28,0.00,,SKC,0.00,VWS V14.01,2013-03-14 22:53:00,
2013-03-14 17:58:00,73.5,38.4,29.93,NNW,337,5.0,9.0,28,0.00,,SKC,0.00,VWS V14.01,2013-03-14 22:58:00,
2013-03-14 18:03:00,73.3,39.2,29.93,NNW,347,0.0,3.0,29,0.00,,SKC,0.00,VWS V14.01,2013-03-14 23:03:00,
2013-03-14 18:08:00,73.0,38.9,29.93,NNW,344,0.0,5.0,29,0.00,,SKC,0.00,VWS V14.01,2013-03-14 23:08:00,
2013-03-14 18:13:00,72.8,38.7,29.93,NNW,346,2.0,5.0,29,0.00,,SKC,0.00,VWS V14.01,2013-03-14 23:13:00,
2013-03-14 18:18:00,72.6,39.4,29.93,NNW,346,0.0,0.0,30,0.00,,SKC,0.00,VWS V14.01,2013-03-14 23:18:00,
2013-03-14 18:23:00,72.4,38.4,29.94,NNW,348,0.0,5.0,29,0.00,,SKC,0.00,VWS V14.01,2013-03-14 23:23:00,
2013-03-14 18:28:00,72.2,38.2,29.94,North,355,0.0,2.0,29,0.00,,SKC,0.00,VWS V14.01,2013-03-14 23:28:00,
2013-03-14 18:33:00,72.1,39.0,29.94,NNW,348,0.0,4.0,30,0.00,,SKC,0.00,VWS V14.01,2013-03-14 23:33:00,
2013-03-14 18:38:00,71.9,38.8,29.94,NNW,348,0.0,1.0,30,0.00,,SKC,0.00,VWS V14.01,2013-03-14 23:38:00,
2013-03-14 18:43:00,71.6,38.6,29.95,North,355,0.0,3.0,30,0.00,,SKC,0.00,VWS V14.01,2013-03-14 23:43:00,
2013-03-14 18:48:00,71.3,38.3,29.95,North,355,0.0,1.0,30,0.00,,SKC,0.00,VWS V14.01,2013-03-14 23:48:00,
2013-03-14 18:53:00,71.0,38.0,29.95,North,355,0.0,1.0,30,0.00,,SKC,0.00,VWS V14.01,2013-03-14 23:53:00,
2013-03-14 18:58:00,70.6,37.7,29.95,North,355,0.0,0.0,30,0.00,,SKC,0.00,VWS V14.01,2013-03-14 23:58:00,
2013-03-14 19:04:00,70.1,37.3,29.95,North,355,0.0,3.0,30,0.00,,SKC,0.00,VWS V14.01,2013-03-15 00:04:00,
2013-03-14 19:09:00,69.5,37.6,29.95,North,355,0.0,0.0,31,0.00,,SKC,0.00,VWS V14.01,2013-03-15 00:09:00,
2013-03-14 19:14:00,69.0,37.9,29.96,North,355,0.0,0.0,32,0.00,,SKC,0.00,VWS V14.01,2013-03-15 00:14:00,
2013-03-14 19:19:00,68.3,37.3,29.96,North,355,0.0,0.0,32,0.00,,SKC,0.00,VWS V14.01,2013-03-15 00:19:00,
2013-03-14 19:24:00,67.6,37.5,29.96,North,355,0.0,0.0,33,0.00,,SKC,0.00,VWS V14.01,2013-03-15 00:24:00,
2013-03-14 19:29:00,66.8,36.8,29.95,North,355,0.0,1.0,33,0.00,,SKC,0.00,VWS V14.01,2013-03-15 00:29:00,
2013-03-14 19:34:00,66.1,36.9,29.96,North,355,0.0,1.0,34,0.00,,SKC,0.00,VWS V14.01,2013-03-15 00:34:00,
2013-03-14 19:39:00,65.5,36.4,29.96,North,355,0.0,2.0,34,0.00,,SKC,0.00,VWS V14.01,2013-03-15 00:39:00,
2013-03-14 19:44:00,64.8,36.5,29.96,North,355,0.0,2.0,35,0.00,,SKC,0.00,VWS V14.01,2013-03-15 00:44:00,
2013-03-14 19:49:00,64.1,36.6,29.96,North,355,0.0,0.0,36,0.00,,SKC,0.00,VWS V14.01,2013-03-15 00:49:00,
2013-03-14 19:54:00,63.5,36.1,29.96,North,355,0.0,0.0,36,0.00,,SKC,0.00,VWS V14.01,2013-03-15 00:54:00,
2013-03-14 19:59:00,63.0,36.3,29.96,North,355,0.0,1.0,37,0.00,,SKC,0.00,VWS V14.01,2013-03-15 00:59:00,
2013-03-14 20:04:00,62.6,36.7,29.96,North,355,0.0,1.0,38,0.00,,SKC,0.00,VWS V14.01,2013-03-15 01:04:00,
2013-03-14 20:09:00,62.3,36.4,29.96,North,360,0.0,3.0,38,0.00,,SKC,0.00,VWS V14.01,2013-03-15 01:09:00,
2013-03-14 20:14:00,62.0,36.8,29.96,North,360,0.0,3.0,39,0.00,,SKC,0.00,VWS V14.01,2013-03-15 01:14:00,
2013-03-14 20:19:00,61.4,36.9,29.96,North,360,0.0,0.0,40,0.00,,SKC,0.00,VWS V14.01,2013-03-15 01:19:00,
2013-03-14 20:24:00,60.6,37.4,29.96,North,360,0.0,0.0,42,0.00,,SKC,0.00,VWS V14.01,2013-03-15 01:24:00,
2013-03-14 20:29:00,59.9,36.8,29.96,North,360,0.0,0.0,42,0.00,,SKC,0.00,VWS V14.01,2013-03-15 01:29:00,
2013-03-14 20:34:00,59.1,36.7,29.96,North,5,0.0,0.0,43,0.00,,SKC,0.00,VWS V14.01,2013-03-15 01:34:00,
2013-03-14 20:39:00,59.0,37.1,29.96,NNE,22,4.0,6.0,44,0.00,,SKC,0.00,VWS V14.01,2013-03-15 01:39:00,
2013-03-14 20:44:00,59.1,37.2,29.95,NNE,26,2.0,3.0,44,0.00,,SKC,0.00,VWS V14.01,2013-03-15 01:44:00,
2013-03-14 20:49:00,59.0,37.7,29.96,NE,34,0.0,7.0,45,0.00,,SKC,0.00,VWS V14.01,2013-03-15 01:49:00,
2013-03-14 20:54:00,59.0,37.7,29.95,NNE,32,1.0,3.0,45,0.00,,SKC,0.00,VWS V14.01,2013-03-15 01:54:00,
2013-03-14 20:59:00,59.0,38.8,29.96,NNE,30,3.0,4.0,47,0.00,,SKC,0.00,VWS V14.01,2013-03-15 01:59:00,
2013-03-14 21:04:00,58.7,38.0,29.96,NNE,32,3.0,5.0,46,0.00,,SKC,0.00,VWS V14.01,2013-03-15 02:04:00,
2013-03-14 21:09:00,58.6,37.9,29.96,NNE,30,4.0,5.0,46,0.00,,SKC,0.00,VWS V14.01,2013-03-15 02:09:00,
2013-03-14 21:14:00,58.6,37.9,29.96,NNE,19,3.0,3.0,46,0.00,,SKC,0.00,VWS V14.01,2013-03-15 02:14:00,
2013-03-14 21:19:00,58.5,37.8,29.96,NNE,22,0.0,4.0,46,0.00,,SKC,0.00,VWS V14.01,2013-03-15 02:19:00,
2013-03-14 21:24:00,58.4,38.3,29.96,NNE,25,2.0,5.0,47,0.00,,SKC,0.00,VWS V14.01,2013-03-15 02:24:00,
2013-03-14 21:29:00,58.2,38.1,29.96,NNE,13,2.0,6.0,47,0.00,,SKC,0.00,VWS V14.01,2013-03-15 02:29:00,
2013-03-14 21:34:00,58.1,38.5,29.96,NNE,27,5.0,5.0,48,0.00,,SKC,0.00,VWS V14.01,2013-03-15 02:34:00,
2013-03-14 21:39:00,57.9,38.3,29.96,NNE,21,5.0,7.0,48,0.00,,SKC,0.00,VWS V14.01,2013-03-15 02:39:00,
2013-03-14 21:44:00,57.8,38.3,29.97,NNE,13,3.0,7.0,48,0.00,,SKC,0.00,VWS V14.01,2013-03-15 02:44:00,
2013-03-14 21:49:00,57.6,38.6,29.97,NNE,26,2.0,7.0,49,0.00,,SKC,0.00,VWS V14.01,2013-03-15 02:49:00,
2013-03-14 21:54:00,57.3,38.3,29.97,NNE,24,1.0,1.0,49,0.00,,SKC,0.00,VWS V14.01,2013-03-15 02:54:00,
2013-03-14 21:59:00,57.0,38.6,29.97,NNE,21,0.0,5.0,50,0.00,,SKC,0.00,VWS V14.01,2013-03-15 02:59:00,
2013-03-14 22:04:00,56.6,38.2,29.97,NNE,24,0.0,4.0,50,0.00,,SKC,0.00,VWS V14.01,2013-03-15 03:04:00,
2013-03-14 22:09:00,56.3,38.4,29.97,NNE,24,0.0,4.0,51,0.00,,SKC,0.00,VWS V14.01,2013-03-15 03:09:00,
2013-03-14 22:14:00,55.9,38.5,29.97,NNE,24,0.0,0.0,52,0.00,,SKC,0.00,VWS V14.01,2013-03-15 03:14:00,
2013-03-14 22:19:00,55.5,38.7,29.97,NNE,26,3.0,6.0,53,0.00,,SKC,0.00,VWS V14.01,2013-03-15 03:19:00,
2013-03-14 22:24:00,54.9,38.6,29.96,NNE,27,1.0,2.0,54,0.00,,SKC,0.00,VWS V14.01,2013-03-15 03:24:00,
2013-03-14 22:30:00,54.3,38.5,29.96,NNE,22,0.0,4.0,55,0.00,,SKC,0.00,VWS V14.01,2013-03-15 03:30:00,
2013-03-14 22:35:00,54.1,38.8,29.96,NNE,26,3.0,3.0,56,0.00,,SKC,0.00,VWS V14.01,2013-03-15 03:35:00,
2013-03-14 22:40:00,53.9,38.6,29.96,NNE,30,4.0,5.0,56,0.00,,SKC,0.00,VWS V14.01,2013-03-15 03:40:00,
2013-03-14 22:45:00,53.3,38.5,29.96,NNE,31,2.0,3.0,57,0.00,,SKC,0.00,VWS V14.01,2013-03-15 03:45:00,
2013-03-14 22:50:00,52.6,38.3,29.97,NNE,31,5.0,5.0,58,0.00,,SKC,0.00,VWS V14.01,2013-03-15 03:50:00,
2013-03-14 22:55:00,52.0,38.1,29.97,NNE,31,3.0,4.0,59,0.00,,SKC,0.00,VWS V14.01,2013-03-15 03:55:00,
2013-03-14 23:00:00,51.6,38.2,29.96,NNE,31,0.0,5.0,60,0.00,,SKC,0.00,VWS V14.01,2013-03-15 04:00:00,
2013-03-14 23:01:00,51.6,38.2,29.97,NNE,31,0.0,5.0,60,0.00,,SKC,0.00,VWS V14.01,2013-03-15 04:01:00,
2013-03-14 23:06:00,51.5,38.1,29.97,NNE,31,0.0,0.0,60,0.00,,SKC,0.00,VWS V14.01,2013-03-15 04:06:00,
2013-03-14 23:11:00,51.3,37.9,29.97,NNE,31,0.0,0.0,60,0.00,,SKC,0.00,VWS V14.01,2013-03-15 04:11:00,
2013-03-14 23:16:00,51.0,38.0,29.97,NNE,31,0.0,0.0,61,0.00,,SKC,0.00,VWS V14.01,2013-03-15 04:16:00,
2013-03-14 23:21:00,50.8,37.8,29.96,NNE,31,0.0,0.0,61,0.00,,SKC,0.00,VWS V14.01,2013-03-15 04:21:00,
2013-03-14 23:26:00,50.6,37.7,29.97,NNE,31,0.0,0.0,61,0.00,,SKC,0.00,VWS V14.01,2013-03-15 04:26:00,
2013-03-14 23:31:00,50.4,37.5,29.96,NNE,31,0.0,0.0,61,0.00,,SKC,0.00,VWS V14.01,2013-03-15 04:31:00,
2013-03-14 23:36:00,50.1,37.2,29.96,NNE,31,0.0,0.0,61,0.00,,SKC,0.00,VWS V14.01,2013-03-15 04:36:00,
2013-03-14 23:41:00,49.2,37.2,29.96,NNE,31,0.0,0.0,63,0.00,,SKC,0.00,VWS V14.01,2013-03-15 04:41:00,
2013-03-14 23:46:00,48.7,36.7,29.95,NNE,31,0.0,0.0,63,0.00,,SKC,0.00,VWS V14.01,2013-03-15 04:46:00,
2013-03-14 23:51:00,48.3,37.1,29.95,NNE,31,0.0,0.0,65,0.00,,SKC,0.00,VWS V14.01,2013-03-15 04:51:00,
2013-03-14 23:57:00,47.9,37.1,29.95,NNE,31,0.0,0.0,66,0.00,,SKC,0.00,VWS V14.01,2013-03-15 04:57:00,